Terminal Aerodrome Forecast
Issued by NWS Tampa Bay Area, FL

Home | Current Version | Previous Version | Text Only | Print | Product List | Glossary Off
Versions: 1 2 3 4 5 6 7 8 9 10 11 12

000
FTUS42 KTBW 301740
TAFFMY
TAF
KFMY 301740Z 3018/3118 07006KT P6SM VCSH BKN050
     FM302000 27008KT P6SM VCTS SCT035CB BKN250
     FM310200 05006KT P6SM SCT035 BKN250
     FM310600 09004KT P6SM FEW250
     FM311400 VRB06KT P6SM FEW250=

USA.gov is the U.S. government's official web portal to all federal, state and local government web resources and services.